Date,TemperatureHighF,TemperatureAvgF,TemperatureLowF,DewpointHighF,DewpointAvgF,DewpointLowF,HumidityHigh,HumidityAvg,HumidityLow,PressureMaxIn,PressureMinIn,WindSpeedMaxMPH,WindSpeedAvgMPH,GustSpeedMaxMPH,PrecipitationSumIn
2013-1-1,32.8,30.3,23.8,29.7,26.3,17.5,90,85,77,30.09,29.98,3,0,3,0.00
2013-1-2,29.2,23.3,18.7,19.0,15.3,12.6,78,71,60,30.24,30.07,5,0,5,0.02
2013-1-3,35.3,24.6,14.0,22.7,16.2,8.5,81,70,59,30.23,30.12,10,1,10,0.09
2013-1-4,34.0,29.6,27.5,23.2,21.1,18.7,77,70,61,30.26,30.15,9,2,9,0.01
2013-1-5,37.8,31.1,26.3,26.3,22.4,18.1,77,70,61,30.39,30.16,6,1,6,0.02
2013-1-6,39.1,35.1,31.9,30.8,27.7,24.4,85,75,67,30.22,30.01,7,1,7,0.01
2013-1-7,36.4,31.5,24.1,29.2,25.3,19.2,82,78,68,30.46,30.22,8,1,8,0.00
2013-1-8,45.0,32.4,22.1,32.1,25.0,18.1,86,75,56,30.37,30.26,5,0,5,0.00
2013-1-9,45.7,38.7,31.5,39.9,32.1,25.6,86,77,70,30.49,30.23,8,1,8,0.02
2013-1-10,41.2,36.5,29.0,31.9,28.6,24.5,85,73,63,30.61,30.30,5,1,5,0.00
2013-1-11,52.9,46.8,39.1,50.4,40.7,27.5,92,80,62,30.30,29.99,4,0,4,0.20
2013-1-12,62.6,55.9,49.5,57.8,52.5,47.3,95,89,78,30.11,29.99,5,0,5,0.02
2013-1-13,70.4,61.4,56.9,57.4,53.8,51.4,90,77,60,29.99,29.89,11,2,11,0.14
2013-1-14,57.2,39.6,31.3,54.3,32.0,23.7,91,74,60,30.38,29.92,13,1,13,0.02
2013-1-15,32.9,30.0,25.9,27.9,23.2,20.9,88,75,69,30.39,30.09,5,1,5,0.00
2013-1-16,34.2,32.6,30.8,31.9,30.1,27.9,93,90,87,30.09,29.91,8,0,8,0.16
2013-1-17,35.3,32.8,31.3,30.0,28.1,26.8,87,83,79,30.20,30.02,4,0,4,0.02
2013-1-18,32.6,27.2,19.1,27.0,16.2,8.3,84,63,52,30.50,30.17,10,2,10,0.09
2013-1-19,52.6,42.7,30.1,24.8,20.7,15.6,60,42,28,30.27,29.86,12,3,12,0.03
2013-1-20,46.1,35.5,24.3,30.9,19.5,12.0,62,52,41,30.15,29.81,13,2,13,0.00
2013-1-21,27.2,22.2,13.1,19.1,12.4,1.5,84,66,54,30.12,29.91,11,1,11,0.00
2013-1-22,14.4,10.2,6.8,5.5,0.1,-3.0,73,63,52,30.27,30.06,9,1,9,0.00
2013-1-23,18.0,12.4,6.1,8.2,2.0,-1.6,71,63,51,30.30,30.07,7,0,7,0.00
2013-1-24,23.6,16.7,12.6,11.8,6.3,-0.7,83,64,39,30.53,30.05,6,1,6,0.00
2013-1-25,20.9,16.4,13.0,14.7,9.3,2.6,83,73,63,30.51,30.02,6,1,6,0.00
2013-1-26,29.2,23.3,17.1,22.5,17.5,11.1,84,79,70,30.45,30.08,5,0,5,0.01
2013-1-27,34.2,24.2,13.3,21.5,15.9,9.1,84,71,56,30.54,30.35,4,0,4,0.08
2013-1-28,49.9,41.3,31.0,47.9,37.8,20.9,93,88,66,30.32,30.03,8,1,8,0.12
2013-1-29,64.8,56.0,49.7,56.1,50.9,47.7,95,84,70,30.08,29.82,9,1,9,0.01
2013-1-30,65.5,57.2,48.8,55.5,51.2,44.1,93,81,66,29.84,29.28,12,2,12,1.02
2013-1-31,48.8,29.2,23.6,44.1,21.8,13.2,89,74,55,29.87,29.27,16,2,16,0.03
2013-2-1,23.6,16.6,10.4,19.7,8.0,2.5,85,69,60,30.34,29.83,11,1,11,0.00
2013-2-2,26.3,18.2,8.5,20.3,12.1,1.8,85,77,70,30.33,29.97,8,1,8,0.00
2013-2-3,30.1,23.8,18.4,23.5,18.7,12.5,86,81,71,30.04,29.84,8,1,8,0.02
2013-2-4,29.9,23.4,18.2,23.2,17.2,11.3,85,77,66,30.08,29.86,6,1,6,0.02
2013-2-5,33.7,29.6,27.0,29.5,25.9,23.2,90,86,79,29.95,29.83,4,0,4,0.01
2013-2-6,33.5,28.6,20.5,25.6,22.2,14.7,88,77,60,30.33,29.95,5,0,5,0.06
2013-2-7,43.4,31.3,19.8,30.2,23.5,15.1,84,74,57,30.31,29.99,6,1,6,0.05
2013-2-8,38.2,32.8,26.3,35.5,27.9,21.3,90,82,76,30.15,29.82,13,2,13,0.14
2013-2-9,34.6,26.7,22.0,21.8,18.1,15.1,85,70,51,30.40,30.15,10,1,10,0.01
2013-2-10,53.3,35.4,19.1,30.5,21.3,13.4,82,60,34,30.36,29.98,7,1,7,0.00
2013-2-11,62.1,46.9,37.8,46.8,34.5,25.2,89,65,32,29.98,29.69,14,3,14,0.05
2013-2-12,42.1,36.3,28.8,27.8,24.8,21.1,74,63,54,30.09,29.94,8,1,8,0.00
2013-2-13,40.0,31.9,25.4,31.0,25.9,19.8,91,79,64,29.94,29.70,3,0,3,0.01
2013-2-14,43.2,35.1,28.4,34.5,29.5,24.8,88,80,68,29.97,29.87,7,1,7,0.05
2013-2-15,40.9,35.6,28.3,34.2,28.3,22.1,88,75,60,30.07,29.92,6,1,6,0.00
2013-2-16,31.5,26.8,21.6,22.7,17.8,12.0,84,69,52,30.07,29.92,5,0,5,0.06
2013-2-17,25.2,19.7,14.0,18.6,11.9,4.2,86,72,55,30.26,29.92,8,1,8,0.01
2013-2-18,43.6,28.1,10.6,30.2,15.7,3.5,75,61,44,30.30,29.90,7,1,7,0.02
2013-2-19,44.8,36.7,24.8,39.2,28.4,14.9,85,72,51,29.95,29.69,12,2,12,0.14
2013-2-20,24.8,20.8,18.7,17.0,12.9,9.2,82,71,57,30.21,29.95,10,1,10,0.00
2013-2-21,26.3,22.1,19.4,18.1,14.8,12.8,82,73,62,30.35,30.18,6,1,6,0.01
2013-2-22,37.8,31.1,21.6,33.8,25.3,14.2,91,79,60,30.28,30.00,8,2,8,0.01
2013-2-23,45.9,37.0,32.0,38.3,31.6,26.6,88,81,70,30.02,29.87,5,0,5,0.00
2013-2-24,32.2,30.0,27.4,27.1,23.0,19.8,85,75,63,30.15,29.88,5,0,5,0.00
2013-2-25,43.6,33.4,23.0,27.7,22.8,18.1,84,66,47,30.24,30.07,6,1,6,0.00
2013-2-26,40.3,35.8,31.3,35.6,28.0,20.9,92,74,53,30.08,29.60,11,3,11,0.79
2013-2-27,44.1,39.3,34.2,38.1,35.2,30.3,91,85,73,29.70,29.58,7,1,7,0.25
2013-2-28,35.6,33.7,32.2,31.6,29.9,27.7,91,86,81,29.83,29.65,6,1,6,0.08
2013-3-1,32.9,30.1,26.3,30.0,25.0,20.2,91,81,74,29.99,29.82,6,1,6,0.03
2013-3-2,31.1,27.0,25.0,22.8,21.1,19.4,85,78,66,29.97,29.91,5,1,5,0.01
2013-3-3,29.2,26.1,23.2,22.7,19.8,17.4,87,77,67,30.02,29.92,7,2,7,0.00
2013-3-4,38.5,28.4,21.6,21.3,18.3,16.3,85,67,47,30.12,30.01,8,1,8,0.02
2013-3-5,46.3,33.9,21.1,25.2,18.0,14.7,81,55,29,30.10,29.69,13,2,13,0.00
2013-3-6,41.6,35.7,31.5,32.9,29.2,26.5,92,78,63,30.12,29.69,8,1,8,0.25
2013-3-7,41.8,35.9,33.1,31.2,29.1,26.3,86,77,62,30.29,30.11,6,1,6,0.00
2013-3-8,37.6,33.7,29.7,28.8,26.5,23.2,82,75,67,30.41,30.29,8,2,8,0.00
2013-3-9,56.5,40.8,24.1,35.9,27.1,20.3,86,61,36,30.41,30.19,5,1,5,0.00
2013-3-10,72.7,56.0,42.8,39.2,30.4,24.2,50,39,25,30.19,30.02,8,2,8,0.00
2013-3-11,64.4,55.7,47.7,46.6,34.9,30.4,85,47,30,30.04,29.73,9,2,9,0.15
2013-3-12,47.7,40.1,36.4,43.4,33.2,27.3,87,76,67,30.02,29.80,9,1,9,0.05
2013-3-13,38.3,32.1,27.2,29.8,25.1,17.9,86,75,60,30.14,29.93,10,2,10,0.03
2013-3-14,38.9,31.0,24.5,20.7,18.7,16.6,76,61,44,30.22,30.13,10,2,10,0.00
2013-3-15,50.6,38.8,28.1,33.8,26.1,18.3,69,60,49,30.15,29.84,8,1,8,0.00
2013-3-16,40.7,36.7,33.3,37.2,33.6,29.3,91,89,82,29.98,29.66,6,1,6,0.06
2013-3-17,38.5,32.9,29.0,29.3,24.4,21.8,86,71,53,30.20,29.98,5,1,5,0.00
2013-3-18,40.3,34.6,30.6,35.2,29.4,22.0,91,82,69,30.17,29.71,10,3,10,0.43
2013-3-19,46.8,38.2,30.2,40.9,26.9,16.8,92,66,37,29.98,29.71,16,3,16,0.04
2013-3-20,41.9,32.2,26.6,22.6,18.2,15.4,69,57,40,29.98,29.82,14,2,14,0.00
2013-3-21,31.3,24.8,19.1,20.0,13.2,7.2,79,62,43,29.91,29.86,8,2,8,0.00
2013-3-22,35.6,29.1,24.8,21.3,18.9,16.6,77,66,53,30.04,29.90,7,1,7,0.00
2013-3-23,48.6,34.1,21.4,26.0,20.9,15.3,79,60,37,30.05,29.99,6,1,6,0.00
2013-3-24,45.7,34.3,27.4,28.8,23.1,19.7,84,65,41,30.02,29.55,14,3,14,0.00
2013-3-25,39.1,34.2,31.3,33.8,30.8,28.4,91,87,80,29.76,29.47,9,1,9,0.51
2013-3-26,42.8,35.9,32.2,33.1,30.8,29.3,92,82,66,30.09,29.76,8,2,8,0.15
2013-3-27,43.0,36.5,32.4,32.0,29.0,24.1,92,76,49,30.17,30.07,9,1,9,0.10
2013-3-28,44.5,38.6,34.2,31.1,29.2,27.7,84,69,55,30.28,30.13,8,1,8,0.00
2013-3-29,55.8,43.7,37.3,34.9,27.4,21.9,74,55,31,30.28,30.17,8,1,8,0.00
2013-3-30,59.9,44.0,28.1,30.6,23.7,19.4,72,47,25,30.27,30.05,5,0,5,0.00
2013-3-31,51.7,46.3,42.7,44.8,34.8,21.0,85,66,39,30.05,29.76,4,0,4,0.12
2013-4-1,45.7,41.2,33.7,42.1,28.1,13.5,88,62,31,30.04,29.74,11,2,11,0.05
2013-4-2,42.7,33.4,26.3,21.5,16.0,12.9,77,50,32,30.20,30.04,12,2,12,0.00
2013-4-3,41.6,33.3,25.9,22.1,14.1,9.8,66,46,31,30.42,30.19,11,1,11,0.00
2013-4-4,58.3,39.0,21.2,21.2,15.4,9.8,76,42,17,30.40,29.99,7,1,7,0.00
2013-4-5,56.5,45.0,34.9,30.6,22.8,17.6,56,42,31,30.20,29.95,10,1,10,0.00
2013-4-6,63.7,44.2,25.6,23.7,18.8,12.5,68,41,17,30.31,30.04,9,1,9,0.00
2013-4-7,74.5,61.1,51.5,47.2,36.8,20.2,60,41,29,30.05,29.92,12,2,12,0.00
2013-4-8,77.6,63.0,48.4,50.8,44.6,38.4,70,53,34,30.08,29.93,10,2,10,0.00
2013-4-9,83.7,70.4,56.3,58.1,51.9,47.3,76,53,36,30.14,29.96,8,1,8,0.00
2013-4-10,80.5,69.5,59.2,64.5,56.4,50.0,88,64,49,30.03,29.85,11,1,11,0.60
2013-4-11,76.7,65.2,56.2,60.6,56.3,50.4,91,74,53,29.94,29.65,10,1,10,0.02
2013-4-12,64.8,57.7,45.5,58.9,48.7,32.8,92,73,52,29.90,29.56,12,2,12,0.64
2013-4-13,54.9,46.3,38.9,35.5,32.9,30.6,75,60,46,30.06,29.89,10,2,10,0.00
2013-4-14,67.0,50.2,33.3,39.7,32.4,25.0,75,53,34,30.19,30.05,9,1,9,0.00
2013-4-15,69.5,61.0,55.6,51.0,44.2,35.4,67,54,45,30.15,30.01,10,2,10,0.00
2013-4-16,79.6,64.8,54.0,59.6,53.1,46.4,90,67,47,30.24,30.08,20,2,20,1.40
2013-4-17,73.6,61.1,51.8,56.7,52.4,46.1,92,74,54,30.29,30.13,7,1,7,0.00
2013-4-18,87.1,72.6,60.3,61.6,56.8,53.6,82,60,37,30.16,29.84,12,3,12,0.01
2013-4-19,70.7,61.5,44.3,59.8,49.1,29.1,81,64,54,29.90,29.56,12,3,12,0.14
2013-4-20,49.3,42.1,36.5,30.9,26.5,22.4,75,55,39,30.42,29.90,11,2,11,0.01
2013-4-21,58.0,42.8,28.4,27.8,22.6,18.3,73,48,24,30.61,30.41,8,2,8,0.00
2013-4-22,67.0,52.4,40.7,34.3,27.1,21.1,54,39,23,30.48,30.30,9,3,9,0.00
2013-4-23,77.4,57.8,39.2,41.8,35.2,28.7,72,45,24,30.31,30.00,7,1,7,0.00
2013-4-24,71.3,56.3,40.1,54.6,43.8,33.7,84,64,46,30.20,29.80,14,2,14,0.28
2013-4-25,61.9,47.4,34.2,38.4,33.1,27.9,84,61,29,30.38,30.20,10,1,10,0.01
2013-4-26,65.9,50.6,36.7,38.4,32.7,24.7,83,55,25,30.49,30.37,6,1,6,0.00
2013-4-27,79.0,59.1,38.2,41.7,34.3,27.0,71,43,22,30.42,30.19,8,2,8,0.00
2013-4-28,60.8,56.7,53.6,53.9,46.1,38.2,87,69,45,30.20,29.98,9,2,9,0.20
2013-4-29,67.0,58.2,52.9,58.1,51.8,46.3,87,79,68,30.07,29.97,5,1,5,0.10
2013-4-30,77.6,63.0,52.6,57.4,51.8,49.1,89,69,46,30.23,30.07,10,2,10,0.01
2013-5-1,79.6,65.7,53.5,53.8,47.0,33.3,80,54,30,30.35,30.23,9,3,9,0.00
2013-5-2,82.1,65.6,51.5,45.4,36.0,27.8,54,36,16,30.39,30.25,10,2,10,0.00
2013-5-3,77.6,63.8,48.6,45.2,39.1,33.7,58,41,25,30.30,30.20,12,2,12,0.00
2013-5-4,74.5,61.3,47.7,45.1,39.4,33.7,62,46,28,30.25,30.12,12,2,12,0.00
2013-5-5,76.7,62.4,49.1,41.0,33.9,21.6,67,39,15,30.19,30.05,15,2,15,0.00
2013-5-6,73.6,60.3,45.4,52.9,45.1,34.1,74,58,45,30.12,30.04,12,3,12,0.00
2013-5-7,70.6,61.6,56.5,57.1,53.4,50.9,86,75,54,30.07,29.99,12,3,12,0.08
2013-5-8,80.1,64.9,53.6,55.1,50.8,44.7,92,64,33,30.03,29.93,8,1,8,0.18
2013-5-9,81.4,66.3,55.1,57.5,51.4,45.1,88,62,31,30.04,29.94,6,1,6,0.00
2013-5-10,78.8,64.4,58.1,63.0,56.0,49.1,90,75,54,30.05,29.85,10,1,10,0.50
2013-5-11,60.7,57.0,50.8,58.1,52.5,45.7,91,85,75,29.88,29.81,5,1,5,0.21
2013-5-12,54.0,48.5,39.8,47.7,33.0,26.6,86,57,37,30.07,29.86,10,2,10,0.00
2013-5-13,56.9,45.7,34.6,31.9,26.3,22.5,71,49,30,30.20,30.07,10,1,10,0.00
2013-5-14,65.7,43.5,32.8,41.3,30.3,23.1,77,61,38,30.20,30.09,5,0,5,0.00
2013-5-26,65.5,58.1,52.2,34.1,33.4,32.6,48,40,30,30.29,30.24,3,0,3,0.00
2013-5-27,65.9,56.4,42.5,47.5,41.5,32.5,76,58,45,30.31,30.13,4,1,4,0.00
2013-5-28,83.9,67.8,54.7,67.9,57.5,46.7,89,71,49,30.14,30.04,10,1,10,0.14
2013-5-29,90.2,78.1,67.3,64.5,60.3,57.4,73,56,39,30.15,30.06,9,1,9,0.00
2013-5-30,94.5,78.0,64.8,66.7,61.2,56.6,77,58,34,30.25,30.15,5,0,5,0.00
2013-5-31,95.4,80.9,67.7,67.4,63.0,59.3,81,57,37,30.18,30.05,9,1,9,0.00
2013-6-1,90.5,79.0,68.0,67.9,63.9,59.3,83,61,45,30.09,29.88,9,2,9,0.03
2013-6-2,83.9,75.3,68.4,66.4,61.3,56.5,84,63,44,29.93,29.86,8,1,8,0.00
2013-6-3,71.1,64.7,54.5,57.9,51.9,38.4,79,64,48,30.12,29.93,9,1,9,0.00
2013-6-4,81.4,63.2,44.3,50.5,43.9,37.0,78,52,30,30.21,30.11,5,1,5,0.00
2013-6-5,89.1,70.6,52.6,63.5,53.1,43.5,75,55,41,30.19,29.98,7,1,7,0.00
2013-6-6,72.4,66.1,62.3,66.3,61.0,56.6,91,84,63,29.99,29.82,5,1,5,0.59
2013-6-7,68.0,63.5,59.0,61.6,59.1,53.3,93,85,76,29.91,29.80,7,1,7,0.00
2013-6-8,78.3,64.9,56.9,58.3,54.0,51.8,84,69,45,30.16,29.90,5,1,5,0.00
2013-6-9,89.8,72.7,58.0,63.7,58.9,52.2,85,64,36,30.22,30.07,6,1,6,0.00
2013-6-10,77.4,71.2,66.6,70.5,65.0,61.6,88,81,68,30.08,29.85,5,1,5,0.00
2013-6-11,81.0,70.4,64.4,66.4,61.9,58.3,88,75,53,29.95,29.85,7,1,7,0.00
2013-6-12,86.0,75.9,67.0,69.2,64.7,60.6,83,69,49,29.98,29.81,8,1,8,0.00
2013-6-13,75.2,67.7,61.2,69.6,61.5,53.7,90,81,69,29.84,29.58,9,2,9,0.00
2013-6-14,78.8,65.3,56.5,59.0,54.8,51.7,87,71,42,30.12,29.84,5,1,6,0.00
2013-6-15,85.9,69.6,53.1,56.4,51.9,45.4,87,57,29,30.19,30.06,7,0,7,0.00
2013-6-16,76.0,68.7,62.5,67.5,60.9,53.1,88,77,55,30.08,29.96,5,1,5,0.00
2013-6-17,89.1,77.4,65.3,67.9,61.5,57.0,91,61,37,30.03,29.96,4,0,4,0.00
2013-6-18,82.8,71.0,64.6,66.8,61.1,57.2,81,71,53,30.02,29.91,5,0,5,0.00
2013-6-19,82.8,68.7,56.7,57.4,51.3,45.7,84,57,29,30.20,30.02,7,1,7,0.00
2013-6-20,91.1,72.0,53.5,58.6,51.8,46.8,81,53,27,30.29,30.20,6,1,6,0.00
2013-6-21,93.4,76.3,58.0,64.5,57.1,51.5,81,55,32,30.32,30.22,6,0,6,0.00
2013-6-22,94.7,79.3,65.2,69.8,63.7,55.4,82,61,43,30.27,30.14,6,0,6,0.00
2013-6-23,95.6,82.4,69.7,71.7,66.1,63.4,82,60,39,30.22,30.12,4,0,5,0.00
2013-6-24,96.1,82.7,69.3,68.6,64.6,61.7,78,56,36,30.20,30.07,6,0,6,0.00
2013-6-25,94.0,79.3,68.4,70.2,65.3,59.0,86,64,42,30.12,29.96,7,1,7,0.00
2013-6-26,89.1,75.8,66.1,69.8,66.1,63.0,93,74,51,30.05,29.88,5,0,5,0.00
2013-6-27,80.1,72.4,68.2,71.3,66.7,62.6,89,82,71,29.89,29.71,5,0,5,0.00
2013-6-28,81.7,71.1,64.4,70.1,64.3,59.7,90,80,60,29.73,29.57,7,0,7,0.00
2013-6-29,84.6,71.6,60.1,66.5,61.5,56.9,90,72,46,29.76,29.62,7,1,7,0.00
2013-6-30,91.4,73.4,62.6,70.3,64.0,58.8,90,74,46,29.92,29.76,12,1,12,0.00
2013-7-1,82.8,72.8,67.0,70.6,65.2,62.6,90,78,60,30.02,29.88,5,1,5,0.00
2013-7-2,91.4,78.0,66.4,72.5,67.5,63.5,91,72,51,30.13,30.00,5,0,5,0.00
2013-7-3,93.8,79.7,70.6,71.8,67.0,63.3,79,66,45,30.24,30.13,8,1,8,0.00
2013-7-4,97.0,80.2,71.3,71.3,67.7,65.0,84,68,41,30.29,30.19,5,1,5,0.00
2013-7-5,90.9,79.5,69.8,71.9,67.5,65.2,88,68,49,30.24,30.17,8,1,8,0.00
2013-7-6,96.7,82.2,70.0,73.7,69.1,65.5,88,67,42,30.25,30.10,5,1,5,0.00
2013-7-7,81.4,75.4,70.2,70.4,67.1,64.7,84,76,65,30.19,30.09,5,0,5,0.00
2013-7-8,89.8,76.9,65.0,68.6,65.6,60.4,88,70,49,30.19,30.11,5,1,5,0.00
2013-7-9,88.6,75.0,68.4,75.4,68.6,63.7,91,81,62,30.19,30.04,8,1,8,0.00
2013-7-10,91.3,73.7,66.1,78.8,68.6,63.0,93,85,60,30.08,29.89,9,1,9,0.00
2013-7-11,81.4,71.3,65.0,65.3,60.8,54.9,92,71,49,30.07,29.96,5,0,5,0.00
2013-7-12,78.7,68.4,59.4,65.9,59.9,53.9,85,75,59,30.18,30.06,5,0,5,0.00
2013-7-13,88.6,75.2,63.2,70.9,64.2,58.2,87,70,50,30.30,30.16,6,1,6,0.00
2013-7-14,97.2,83.0,70.6,71.1,67.6,64.8,83,62,41,30.36,30.28,8,1,8,0.00
2013-7-15,99.0,83.8,70.6,72.5,68.0,64.1,81,61,40,30.41,30.31,6,0,6,0.00
2013-7-16,96.1,79.6,73.1,76.5,70.6,67.5,90,75,46,30.40,30.32,6,0,6,0.00
2013-7-17,94.7,80.0,70.7,78.1,72.4,67.7,92,79,53,30.37,30.23,6,0,6,0.00
2013-7-18,97.0,84.4,72.0,79.0,73.3,68.9,92,71,44,30.25,30.10,5,0,5,0.00
2013-7-19,94.7,81.6,72.9,76.5,71.1,67.2,85,72,46,30.12,29.94,6,1,6,0.00
2013-7-20,86.9,76.6,71.1,73.6,68.3,64.5,88,76,59,30.00,29.92,6,1,6,0.00
2013-7-21,92.3,76.2,68.9,74.3,67.7,64.4,89,76,50,30.05,29.98,6,0,6,0.00
2013-7-22,85.0,73.0,65.9,74.1,67.7,62.7,91,84,67,30.03,29.84,5,0,5,0.00
2013-7-23,89.3,73.6,65.9,70.7,65.5,59.6,93,78,47,29.86,29.78,7,0,7,0.00
2013-7-24,78.7,68.1,61.2,63.4,56.6,51.0,90,68,46,30.06,29.83,5,1,5,0.00
2013-7-25,81.7,66.8,54.4,55.5,51.9,48.5,84,61,36,30.15,30.05,7,1,7,0.00
2013-7-26,88.9,72.0,55.6,62.2,55.9,49.9,84,60,34,30.16,30.07,7,0,7,0.00
2013-7-27,76.5,68.5,63.4,68.4,61.5,55.0,89,79,66,30.07,29.91,5,0,5,0.00
2013-7-28,80.3,69.3,60.8,66.3,59.1,52.2,90,72,46,30.10,29.91,7,1,7,0.00
2013-7-29,78.5,66.4,54.9,57.2,52.9,49.0,83,63,42,30.25,30.10,5,0,5,0.00
2013-7-30,86.4,69.1,54.7,62.5,55.2,49.6,86,63,39,30.30,30.21,2,0,2,0.00
2013-7-31,82.8,69.6,59.4,66.5,60.3,54.3,85,73,51,30.22,30.02,4,0,4,0.00
2013-8-1,84.4,72.6,66.1,66.4,62.0,58.3,91,71,44,30.02,29.93,6,1,6,0.00
2013-8-2,81.4,70.6,61.2,61.7,57.2,51.3,85,64,39,30.06,29.97,7,1,7,0.00
2013-8-3,83.5,70.5,62.1,68.4,61.5,53.0,89,74,52,30.06,29.99,6,0,6,0.00
2013-8-4,79.9,67.0,56.2,59.6,54.1,50.7,87,65,41,30.15,30.05,7,1,7,0.00
2013-8-5,80.1,66.7,53.8,58.0,53.1,49.0,85,64,40,30.18,30.08,4,0,4,0.00
2013-8-6,88.4,71.8,57.2,60.9,55.6,50.9,84,60,33,30.09,30.03,5,1,5,0.00
2013-8-7,90.4,73.2,63.7,72.7,64.2,57.4,88,74,54,30.06,29.99,6,0,6,0.00
2013-8-8,91.1,77.1,67.3,75.0,68.8,63.6,90,77,55,30.04,29.97,6,1,6,0.00
2013-8-9,81.5,74.6,68.4,75.3,68.6,62.1,91,82,66,30.08,29.96,6,1,6,0.00
2013-8-10,84.6,73.6,63.4,66.0,62.0,59.1,88,69,48,30.16,30.07,5,0,5,0.00
2013-8-11,87.7,72.8,63.2,67.9,61.4,55.4,88,69,47,30.20,30.09,4,0,4,0.00
2013-8-12,88.4,76.4,64.6,69.9,64.5,61.4,91,69,43,30.13,29.95,5,0,5,0.00
2013-8-13,82.6,72.3,59.0,69.3,61.0,48.1,86,69,47,30.04,29.87,7,2,7,0.00
2013-8-14,73.4,61.4,52.9,55.8,49.5,46.1,81,66,47,30.20,30.03,6,1,6,0.00
2013-8-15,81.5,64.7,49.1,56.3,49.2,44.1,84,60,32,30.25,30.15,6,0,6,0.00
2013-8-16,84.4,68.3,54.2,59.0,52.8,48.3,83,60,35,30.23,30.17,4,0,4,0.00
2013-8-17,82.3,69.3,57.2,58.3,54.4,51.0,82,61,35,30.30,30.23,0,0,0,0.00
2013-8-18,76.7,68.5,63.7,64.1,59.8,54.4,88,74,63,30.28,30.19,0,0,0,0.00
2013-8-19,83.5,71.1,65.2,70.2,63.6,58.5,92,79,51,30.21,30.12,3,0,3,0.00
2013-8-20,89.3,72.6,58.3,67.9,60.2,54.5,90,68,42,30.25,30.16,4,0,4,0.00
2013-8-21,90.7,74.8,60.3,66.4,61.8,56.0,87,66,39,30.26,30.12,4,0,4,0.00
2013-8-22,87.7,74.2,65.5,72.6,66.0,61.2,86,76,53,30.17,30.04,6,1,6,0.00
2013-8-23,87.3,73.8,67.9,69.0,62.4,53.6,92,71,40,30.20,30.05,4,0,4,0.00
2013-8-24,88.6,71.4,57.6,63.7,56.9,51.9,83,62,37,30.36,30.20,4,0,4,0.00
2013-8-25,88.4,73.0,58.5,63.6,58.2,53.6,85,62,33,30.42,30.29,4,0,4,0.00
2013-8-26,89.5,75.5,62.5,65.5,61.0,55.1,79,62,42,30.31,30.09,5,1,5,0.00
2013-8-27,85.7,76.2,71.1,71.6,67.7,64.4,86,75,59,30.10,30.01,4,0,4,0.00
2013-8-28,81.0,73.5,70.2,75.3,69.5,67.1,93,87,76,30.02,29.89,5,0,5,0.00
2013-8-29,88.6,76.4,68.9,71.8,67.3,63.5,94,76,49,30.10,29.97,4,0,4,0.00
2013-8-30,90.7,77.1,65.2,72.9,67.1,61.2,90,73,50,30.08,29.91,5,0,5,0.00
2013-8-31,92.5,78.2,70.6,72.8,68.3,65.8,87,73,45,29.93,29.85,6,1,6,0.00
2013-9-1,85.1,75.2,70.0,73.6,68.8,65.6,88,81,65,29.92,29.85,4,0,4,0.00
2013-9-2,87.8,75.5,66.8,73.5,67.6,62.5,90,78,54,29.92,29.81,7,1,7,0.00
2013-9-3,74.7,66.4,59.4,62.6,57.5,51.8,92,74,52,30.10,29.90,6,1,6,0.00
2013-9-4,81.4,66.4,52.4,60.2,54.4,48.8,89,68,42,30.19,30.10,5,0,5,0.00
2013-9-5,78.3,67.5,57.6,60.3,53.5,45.3,83,63,39,30.26,30.12,8,1,8,0.00
2013-9-6,78.7,61.5,47.5,49.6,45.0,41.6,84,58,30,30.33,30.18,5,0,5,0.00
2013-9-7,85.0,66.4,48.6,55.7,49.6,43.0,83,58,29,30.18,30.01,5,0,5,0.00
2013-9-8,81.7,71.5,63.7,67.2,59.9,55.4,77,67,55,30.11,29.98,4,0,4,0.00
2013-9-9,86.6,69.6,57.8,71.4,62.0,52.7,90,78,58,30.16,30.06,5,0,5,0.00
2013-9-10,93.6,79.6,69.5,75.4,70.6,65.7,91,76,54,30.21,30.11,6,1,6,0.00
2013-9-11,93.6,78.9,72.5,76.5,70.4,67.0,89,76,52,30.22,30.08,5,1,5,0.00
2013-9-12,80.1,71.2,63.2,71.3,66.4,59.1,91,85,72,30.09,28.11,11,1,11,0.00
2013-9-13,68.8,59.9,53.1,59.9,51.1,44.6,91,73,57,30.08,29.13,8,2,8,0.00
2013-9-14,69.5,57.4,50.6,47.6,44.9,41.2,82,65,39,30.22,30.08,4,0,4,0.00
2013-9-15,73.1,59.7,45.7,54.6,49.0,41.5,88,70,47,30.23,30.12,4,0,5,0.00
2013-9-16,73.6,62.1,53.6,57.1,52.7,47.0,88,73,51,30.35,30.12,5,0,5,0.00
2013-9-17,73.1,57.7,45.9,52.8,46.2,41.3,89,68,43,30.43,30.30,8,1,8,0.00
2013-9-18,78.7,61.2,46.6,55.2,47.7,39.7,81,62,42,30.31,30.16,6,1,6,0.00
2013-9-19,83.3,68.9,61.7,63.2,58.2,52.5,85,70,47,30.19,30.08,6,0,6,0.00
2013-9-20,84.2,71.1,59.9,69.0,63.4,55.4,87,77,60,30.10,29.89,6,1,6,0.00
2013-9-21,70.2,64.4,57.2,65.6,60.6,54.6,92,88,80,29.90,29.75,5,0,7,0.00
2013-9-22,65.5,57.2,53.5,54.6,49.5,45.0,93,77,50,30.07,29.85,8,1,8,0.00
2013-9-23,60.8,53.5,45.2,47.0,43.4,39.2,81,69,54,30.19,30.06,4,0,4,0.00
2013-9-24,71.6,54.6,41.9,49.5,43.1,37.7,91,68,40,30.16,30.01,5,0,5,0.00
2013-9-25,78.8,59.6,47.2,54.0,47.3,42.3,89,66,37,30.03,29.93,5,0,5,0.00
2013-9-26,78.7,62.2,49.0,56.2,48.5,44.7,89,64,35,30.13,29.99,4,0,4,0.00
2013-9-27,79.0,61.8,48.8,55.9,49.8,43.8,89,67,40,30.24,30.13,4,0,4,0.00
2013-9-28,78.1,62.1,50.8,58.0,50.9,46.5,89,69,42,30.31,30.20,5,1,5,0.00
2013-9-29,79.2,63.6,52.4,58.8,52.2,45.9,82,68,46,30.20,30.06,5,0,5,0.00
2013-9-30,73.8,63.6,55.6,62.0,55.9,49.9,84,76,64,30.11,30.03,4,0,4,0.00
2013-10-1,79.9,67.8,59.4,62.5,57.8,55.4,88,72,50,30.14,30.06,5,1,5,0.00
2013-10-2,82.6,69.6,59.4,65.5,59.7,54.7,87,72,52,30.16,30.09,5,0,5,0.00
2013-10-3,80.8,68.9,60.5,70.7,62.3,56.3,90,80,65,30.16,30.07,5,0,5,0.00
2013-10-4,84.4,70.7,63.4,69.0,64.1,60.1,91,81,50,30.16,30.09,6,0,6,0.00
2013-10-5,86.4,71.2,65.0,70.6,65.2,62.0,92,82,54,30.15,30.05,10,0,10,0.00
2013-10-6,87.5,74.2,66.4,68.7,63.6,57.9,92,72,47,30.05,29.82,4,0,4,0.00
2013-10-7,70.9,58.3,50.9,59.1,48.4,42.1,88,70,53,30.17,29.77,9,1,9,0.00
2013-10-8,67.0,54.2,43.4,49.9,43.8,39.4,88,70,46,30.34,30.17,5,1,5,0.00
2013-10-9,69.8,54.7,42.8,48.4,41.8,38.1,89,65,37,30.37,30.27,7,1,7,0.00
2013-10-10,73.6,58.0,46.6,49.7,43.0,38.8,80,59,37,30.28,30.14,6,1,6,0.00
2013-10-11,61.2,56.7,52.6,56.4,51.0,45.6,89,81,70,30.15,30.09,5,1,5,0.00
2013-10-12,74.0,63.5,54.9,61.9,55.6,49.5,82,76,66,30.21,30.10,5,1,5,0.00
2013-10-13,72.4,63.6,57.1,60.8,56.4,52.2,87,78,64,30.30,30.20,4,1,4,0.00
2013-10-14,62.8,60.1,58.0,58.6,55.8,54.5,90,86,79,30.35,30.27,3,0,3,0.00
2013-10-15,73.1,62.0,51.7,62.0,55.5,48.6,92,80,66,30.27,30.03,5,0,5,0.00
2013-10-16,64.1,60.2,56.9,59.5,55.6,52.2,90,85,77,30.04,29.91,5,1,5,0.00
2013-10-17,62.5,55.6,49.7,58.9,50.8,46.5,91,84,74,29.96,29.73,11,1,11,0.00
2013-10-18,62.6,52.4,44.3,46.7,42.8,38.8,89,71,46,30.06,29.93,8,1,8,0.00
2013-10-19,55.4,47.4,41.4,47.6,41.3,36.3,86,79,68,30.01,29.79,6,1,6,0.00
2013-10-20,58.9,47.5,38.5,41.7,37.7,35.6,89,71,47,30.07,29.97,10,1,10,0.00
2013-10-21,67.1,53.2,41.4,43.1,37.3,34.7,78,57,34,30.09,29.89,8,1,8,0.00
2013-10-22,56.3,48.0,40.9,45.6,35.3,28.5,86,63,43,30.00,29.87,8,1,8,0.00
2013-10-23,43.6,40.8,36.7,38.0,34.4,31.1,87,78,63,29.95,29.78,6,0,6,0.00
2013-10-24,45.9,38.9,34.2,33.3,30.9,27.5,87,74,51,30.16,29.94,8,1,8,0.00
2013-10-25,49.3,39.4,32.6,35.6,30.0,27.5,88,71,47,30.34,30.16,6,0,6,0.00
2013-10-26,50.2,41.3,31.1,32.1,27.8,25.0,81,60,40,30.27,29.92,9,2,9,0.00
2013-10-27,54.2,43.6,35.6,35.5,31.2,28.5,82,63,43,30.13,30.00,7,0,7,0.00
2013-10-28,61.4,44.7,31.5,41.1,32.7,26.4,84,65,37,30.31,30.12,5,0,5,0.00
2013-10-29,60.7,47.4,36.4,42.2,36.4,31.3,88,67,45,30.40,30.28,3,0,3,0.00
2013-10-30,66.2,53.8,43.6,51.7,44.5,36.9,84,71,53,30.29,30.14,3,0,3,0.00
2013-10-31,67.5,61.1,56.5,58.3,55.6,51.7,91,82,66,30.14,29.52,8,2,8,0.00
2013-11-1,67.1,58.9,53.8,57.2,47.5,42.0,85,67,49,29.75,29.41,9,2,9,0.00
2013-11-2,55.4,49.3,43.7,43.4,41.4,39.3,88,74,61,29.99,29.71,8,1,8,0.00
2013-11-3,48.8,41.8,33.5,40.3,32.1,23.6,87,69,50,30.47,29.99,7,1,7,0.00
2013-11-4,47.5,37.9,29.0,25.8,23.6,21.6,75,58,38,30.55,30.43,6,1,6,0.00
2013-11-5,60.7,47.1,37.1,37.9,30.5,25.7,67,53,39,30.52,30.35,5,0,5,0.00
2013-11-6,72.0,57.6,41.6,54.4,44.0,26.7,86,61,47,30.35,29.97,10,1,10,0.00
2013-11-7,57.8,46.2,38.9,54.0,38.4,24.9,90,75,52,30.16,29.91,10,2,10,0.00
2013-11-8,45.2,38.2,30.4,30.2,26.7,22.1,79,64,45,30.31,30.10,9,1,9,0.00
2013-11-9,58.3,43.9,29.5,34.1,26.5,22.2,78,54,28,30.30,29.98,11,1,11,0.00
2013-11-10,52.7,44.8,36.7,36.3,31.1,27.2,70,59,43,30.29,29.99,11,2,11,0.00
2013-11-11,50.8,41.5,32.0,36.5,29.7,25.4,84,64,42,30.29,30.06,8,1,8,0.00
2013-11-12,36.4,31.3,27.7,32.0,23.8,17.2,89,74,50,30.47,30.12,8,1,8,0.00
2013-11-13,37.3,30.0,24.5,23.7,21.2,19.6,84,70,52,30.53,30.38,9,1,9,0.00
2013-11-14,49.3,36.5,25.6,26.7,21.3,18.8,77,56,34,30.38,30.18,6,1,8,0.00
2013-11-15,56.9,45.8,36.2,35.3,25.1,19.8,55,45,27,30.23,30.14,9,1,9,0.00
2013-11-16,61.7,52.2,40.7,47.9,42.2,34.3,82,69,54,30.26,30.06,7,1,7,0.00
2013-11-17,59.9,56.5,52.9,57.3,51.7,45.5,91,84,73,30.06,29.58,8,2,8,0.00
2013-11-18,58.1,48.5,38.5,50.0,34.3,25.6,75,59,44,30.08,29.65,10,3,10,0.00
2013-11-19,38.7,35.6,29.5,26.9,24.1,20.5,71,63,56,30.40,30.08,8,1,8,0.00
2013-11-20,49.0,36.7,27.4,23.2,18.8,12.6,77,52,25,30.48,30.35,11,2,11,0.00
2013-11-21,56.0,44.7,32.9,38.6,29.2,16.8,63,55,46,30.44,30.24,3,0,5,0.00
2013-11-22,53.1,49.3,37.1,50.0,44.0,31.3,92,82,62,30.27,30.08,9,1,9,0.00
2013-11-23,39.1,31.6,20.5,31.5,22.7,8.4,82,70,48,30.34,30.15,10,2,10,0.00
2013-11-24,24.7,19.8,16.7,13.3,10.2,7.4,77,66,49,30.52,30.34,8,2,10,0.00
2013-11-25,36.7,26.5,14.9,19.9,11.9,6.4,71,55,39,30.48,30.21,8,1,8,0.00
2013-11-26,36.7,33.1,31.7,31.5,29.1,19.4,93,86,49,30.22,29.74,7,0,7,0.00
2013-11-27,33.1,28.8,23.2,31.1,24.4,16.7,93,84,72,30.12,29.73,8,2,10,0.00
2013-11-28,30.6,25.4,18.5,21.3,17.2,12.2,79,71,58,30.41,30.12,7,1,7,0.00
2013-11-29,36.4,29.5,23.4,24.2,20.6,17.6,81,69,55,30.64,30.40,4,0,4,0.00
2013-11-30,38.9,31.4,24.5,25.4,21.9,17.6,76,68,56,30.61,30.22,5,1,5,0.00
2013-12-1,45.7,39.4,32.0,32.2,28.7,24.4,73,66,56,30.22,29.99,5,0,5,0.00
2013-12-2,51.1,42.3,38.0,38.0,32.7,29.3,79,69,57,29.99,29.84,4,0,4,0.00
2013-12-3,54.5,43.6,37.4,44.3,36.9,32.8,87,78,64,29.94,29.87,4,0,4,0.00
2013-12-4,58.9,49.2,39.4,48.0,41.6,34.3,85,75,64,30.01,29.90,5,0,5,0.00
2013-12-5,61.6,55.2,40.1,56.1,49.9,36.7,91,82,72,30.08,29.89,8,1,8,0.00
2013-12-6,40.0,34.1,29.0,36.8,30.8,25.9,90,88,83,30.28,30.06,3,0,4,0.00
2013-12-7,33.1,27.2,20.5,25.9,20.7,13.5,88,77,62,30.58,30.26,5,1,5,0.00
2013-12-8,31.0,24.3,19.3,29.0,19.3,13.2,92,81,74,30.57,30.07,10,2,10,0.00
2013-12-9,37.3,34.3,30.4,35.2,30.4,23.4,93,86,74,30.15,29.96,7,1,7,0.00
2013-12-10,30.4,26.7,22.3,24.4,18.5,10.4,85,71,48,30.26,30.04,13,1,13,0.00
2013-12-11,30.8,24.5,18.4,21.1,15.0,11.3,82,67,54,30.35,30.22,10,1,10,0.00
2013-12-12,23.2,19.2,12.4,13.8,7.8,5.0,76,61,49,30.45,30.24,9,1,9,0.00
2013-12-13,35.1,26.9,20.3,20.0,13.9,6.6,66,58,50,30.25,30.19,7,1,7,0.00
2013-12-14,37.1,32.7,29.5,34.7,27.0,19.5,92,80,63,30.24,29.67,9,1,9,0.00
2013-12-15,38.2,30.0,21.2,36.0,24.8,11.3,92,81,63,30.03,29.64,10,2,10,0.00
2013-12-16,27.5,23.1,19.4,20.6,15.9,11.3,80,74,65,30.17,30.03,8,0,8,0.00
2013-12-17,35.3,30.6,25.6,30.4,25.7,20.4,89,82,72,30.04,29.93,9,0,9,0.00
2013-12-18,30.6,27.0,23.0,23.8,20.8,16.3,84,77,67,30.20,30.04,5,1,5,0.00
2013-12-19,51.8,39.4,25.2,35.3,27.8,19.6,80,64,50,30.12,30.04,8,1,8,0.00
2013-12-20,55.4,50.0,43.4,48.6,38.5,28.3,86,66,50,30.04,29.91,9,1,9,0.00
2013-12-21,59.8,56.6,52.2,57.4,53.0,47.2,93,88,81,29.92,29.68,6,1,8,0.00
2013-12-22,65.5,59.1,54.0,59.0,53.8,46.3,93,83,75,29.98,29.59,10,2,10,0.00
2013-12-23,53.8,39.2,31.0,46.5,33.4,20.9,90,80,66,30.29,29.98,7,1,7,0.00
2013-12-24,31.0,23.5,14.2,23.2,14.7,7.3,85,69,55,30.51,30.22,9,2,10,0.00
2013-12-25,27.4,20.7,12.2,21.0,12.9,6.1,80,72,61,30.50,30.22,4,0,4,0.00
2013-12-26,35.6,30.2,24.3,28.2,22.3,15.0,88,73,56,30.35,30.13,5,0,6,0.00
2013-12-27,41.6,33.5,25.0,28.0,22.8,16.6,73,65,55,30.36,30.26,7,0,7,0.00
2013-12-28,52.7,41.8,34.0,32.8,26.8,21.7,62,55,44,30.27,30.07,8,1,8,0.00
2013-12-29,42.1,40.7,39.2,39.5,34.3,25.1,93,79,52,30.07,29.68,5,0,5,0.00
2013-12-30,40.1,27.5,22.7,36.8,22.1,16.2,88,80,71,30.18,29.85,6,1,8,0.00
2013-12-31,26.3,24.3,22.9,20.7,18.0,14.9,83,76,69,30.30,30.06,12,1,12,0.00
2014-1-1,25.6,25.2,24.8,19.0,18.6,18.4,76,76,76,30.29,30.28,1,0,1,0.00
2014-1-2,30.2,27.1,17.8,26.1,22.6,13.4,88,83,78,30.06,29.69,4,0,7,0.00